Location: *
(46.4000°N, 12.6667°E)
Time: 15:14:16
(UTC+00:00)

X-37B - Pass Details

Date: 13 December 2021
Orbit: 334 x 337 km, 45.0° (Epoch: 11 January)

Event Time Altitude Azimuth Distance (km) Brightness Sun altitude
Rises 16:05:19 0° 256° (WSW) 2,102 6.3 -7.2°
Reaches altitude 10° 16:07:20 10° 253° (WSW) 1,266 4.9 -7.5°
Maximum altitude 16:10:07 60° 172° (S) 389 0.7 -7.9°
Drops below altitude 10° 16:12:55 10° 92° (E) 1,267 2.6 -8.4°
Enters shadow 16:12:57 10° 91° (E) 1,280 2.7 -8.4°
